GFSNW_prec_kuchsnow_246.txt.gz
Snowfall_Accumulation
0.0 0.0 0.0 0.0 0.0 0.0 0.0 0.0 17.6 0.0 0.0 10.7 24.5 19.7 3.8 0.0 0.0 0.0 1.1 2.5 5.4 9.0 8.6 10.0 13.5 7.8 1.8 0.0 0.6 2.7 1.8 14.6 10.4 3.0 0.6 0.6 3.4 16.7 28.0 59.2 56.6 41.8 42.2 48.1
0.0 0.0 0.0 0.0 0.0 0.0 0.0 6.6 4.3 0.0 0.0 30.8 15.1 2.7 1.6 0.9 1.6 0.8 2.2 4.2 4.9 6.5 11.4 15.5 5.9 4.5 0.0 0.0 0.8 5.8 3.4 14.2 14.5 5.8 0.9 0.2 3.8 4.7 9.5 22.3 31.6 50.2 51.2 50.7
0.0 0.0 0.0 0.0 0.0 0.0 0.0 5.2 29.5 3.8 2.7 1.5 3.0 4.8 4.3 4.4 0.0 0.7 0.1 3.4 4.0 5.8 4.4 1.9 6.8 4.4 0.2 0.0 0.0 0.0 0.0 10.7 13.3 15.3 10.5 6.1 12.9 6.6 4.4 11.7 45.3 31.7 29.6 27.8
0.0 0.0 0.0 0.0 0.0 0.0 0.0 12.5 21.1 0.1 20.4 12.2 5.0 4.1 5.8 6.1 5.7 0.5 0.2 3.5 3.4 7.1 12.9 4.7 2.6 1.3 0.4 0.0 0.2 0.0 0.5 16.4 6.2 4.0 4.0 2.4 4.4 6.9 5.0 10.2 11.3 23.5 25.2 16.4
0.0 0.0 0.0 0.0 0.0 0.0 0.0 47.0 8.6 1.8 2.0 0.1 2.9 10.5 14.6 7.1 1.4 5.0 2.1 3.7 1.7 2.9 10.0 4.6 8.2 3.1 0.4 2.7 0.0 0.2 0.1 8.0 7.2 7.0 3.3 1.2 7.0 7.8 4.3 4.1 8.4 11.1 6.5 15.1
0.0 0.0 0.0 0.0 0.0 0.0 0.0 1.4 0.0 3.5 3.0 1.8 5.9 4.7 2.7 3.7 2.7 0.3 0.7 1.7 4.4 4.9 2.1 0.3 0.2 0.5 0.8 2.0 4.1 3.2 3.3 6.3 6.7 10.5 0.8 1.7 11.7 14.0 8.2 5.3 3.8 4.5 8.7 14.7
0.0 0.0 0.0 0.0 0.0 0.0 0.0 0.0 0.6 13.9 16.5 5.2 2.5 0.3 1.0 1.8 1.5 5.6 1.1 0.3 2.0 0.0 0.0 0.0 0.0 0.2 0.1 0.1 0.8 1.0 5.8 5.6 8.1 9.8 5.5 26.5 11.0 1.6 2.0 2.4 2.3 2.6 2.7 2.9
0.0 0.0 0.0 0.0 0.0 0.0 0.0 0.0 0.1 10.1 17.1 1.5 2.0 2.0 2.8 0.2 0.5 2.0 1.3 0.6 0.0 0.0 0.6 3.5 5.8 3.0 1.8 0.7 0.1 0.3 1.0 4.8 15.5 16.8 7.2 4.2 2.4 1.8 2.7 2.7 3.4 1.6 1.1 0.6
0.0 0.0 0.0 0.0 0.0 0.0 0.0 0.0 0.0 5.9 21.2 5.9 0.4 4.7 3.2 5.4 2.9 3.8 1.8 0.0 0.0 0.0 3.1 10.7 14.1 6.7 2.1 1.4 0.5 0.0 0.3 2.0 17.5 19.2 18.2 10.6 2.8 0.5 0.1 0.6 6.8 0.8 0.2 0.3
0.0 0.0 0.0 0.0 0.0 0.0 0.0 0.0 0.0 2.4 24.8 0.2 0.4 2.3 4.2 2.0 2.2 3.5 0.8 0.4 0.1 0.5 8.4 14.2 12.0 7.6 3.3 7.2 4.3 2.8 7.0 11.4 27.7 23.2 30.4 8.7 1.5 0.6 0.2 9.4 9.8 0.8 0.1 0.1
0.0 0.0 0.0 0.0 0.0 0.0 0.0 0.0 0.0 0.0 10.5 0.4 0.0 0.0 0.2 0.3 0.5 5.1 1.9 6.5 4.4 8.7 19.1 16.6 11.5 10.2 7.4 5.1 1.7 5.5 9.8 15.3 14.0 16.9 29.3 25.4 1.2 1.0 4.0 4.6 0.5 0.5 0.2 0.1
0.0 0.0 0.0 0.0 0.0 0.0 0.0 2.1 0.0 0.0 1.5 0.0 0.0 0.0 0.0 0.0 0.0 0.4 2.0 5.5 6.3 9.1 19.6 13.5 5.8 7.1 7.8 4.9 13.5 0.9 9.3 4.9 9.9 9.6 17.7 6.1 3.9 3.7 1.0 0.4 1.2 1.0 0.3 0.1
0.0 0.0 0.0 0.0 0.0 0.0 0.0 0.7 0.0 0.0 6.7 0.1 0.0 0.0 0.0 0.0 0.0 0.0 2.5 0.9 1.1 3.7 3.0 7.0 6.6 8.9 3.0 7.4 4.1 2.7 2.1 0.3 5.4 8.3 5.8 2.5 4.2 1.9 0.4 0.4 1.9 1.2 0.3 0.7
0.0 0.0 0.0 0.0 0.0 0.0 0.0 0.0 0.0 0.0 1.3 10.4 0.9 0.0 0.0 0.0 0.0 0.0 0.0 0.0 0.0 0.0 0.0 4.7 5.3 3.4 0.0 1.4 1.2 0.3 1.4 1.6 3.6 7.1 4.3 2.2 1.7 2.0 1.3 1.1 0.7 0.5 0.2 0.2
0.0 0.0 0.0 0.0 0.0 0.0 0.0 0.0 0.0 0.0 0.8 13.9 3.6 0.0 0.0 0.0 0.0 0.0 0.0 0.0 0.0 0.0 2.5 4.7 2.8 0.3 0.8 0.2 1.0 2.2 0.7 2.6 7.7 10.2 6.5 6.1 5.6 4.0 3.0 3.3 2.3 1.0 0.8 1.0
0.0 0.0 0.0 0.0 0.0 0.0 0.0 28.5 0.0 0.0 0.0 8.1 9.4 0.0 0.0 0.0 0.0 0.0 0.0 0.0 0.0 0.1 0.9 1.9 0.3 0.0 0.3 3.0 5.0 3.5 3.2 1.7 1.6 3.6 3.7 7.1 7.3 4.4 2.3 2.3 1.0 0.1 0.0 0.0
0.0 0.0 0.0 0.0 0.0 0.0 1.6 6.1 0.1 0.0 0.0 10.7 11.5 3.2 0.0 0.0 0.0 0.0 0.0 0.0 0.1 0.6 1.5 1.3 0.3 0.0 0.3 3.9 2.5 1.2 0.8 0.4 0.2 0.2 0.2 1.2 0.7 0.7 0.0 0.0 0.0 0.0 0.0 0.0
0.0 0.0 0.0 0.0 0.0 0.0 0.4 0.0 0.0 0.0 0.8 2.5 14.5 7.8 1.5 0.0 2.2 3.1 0.5 1.3 0.6 0.5 0.6 0.5 0.7 0.2 0.8 10.9 1.0 0.0 0.0 0.0 0.0 0.0 0.0 0.0 0.0 0.0 0.0 0.0 0.0 0.0 0.0 0.0
0.0 0.0 0.0 0.0 0.0 9.3 0.0 0.0 0.0 0.0 3.6 15.2 6.3 4.2 15.3 0.0 2.4 2.0 2.5 0.4 8.9 0.4 3.0 0.5 0.4 4.1 14.9 9.0 1.8 0.8 0.2 0.1 0.1 0.0 0.0 0.0 0.1 0.1 0.0 0.6 0.6 0.1 0.6 2.1
0.0 0.0 4.6 39.0 4.1 0.0 0.0 1.0 19.3 12.4 4.0 2.7 3.3 0.5 7.9 1.9 3.8 6.7 5.6 3.2 4.6 8.0 1.4 0.0 4.5 8.4 3.1 1.1 1.2 1.8 1.1 1.4 0.6 0.5 0.4 0.8 0.8 1.0 1.5 1.9 2.4 2.8 3.1 3.5
0.0 23.0 16.8 0.6 0.0 0.0 5.6 31.1 25.2 8.6 12.7 1.5 1.7 0.4 1.5 2.0 11.3 6.2 2.8 8.6 4.5 8.9 3.5 3.7 9.3 12.3 6.1 3.2 4.4 1.7 0.6 0.5 0.7 1.0 1.2 1.3 1.1 1.3 1.6 2.7 1.6 2.2 2.4 2.9
0.0 0.0 0.0 0.0 8.5 13.7 14.8 16.1 7.7 5.5 3.1 0.5 0.3 0.2 0.2 0.7 1.8 8.2 4.5 8.8 9.8 12.7 3.6 12.2 16.6 7.8 4.0 3.3 3.4 1.0 0.4 0.1 0.1 0.3 0.5 0.9 1.1 1.3 1.4 2.0 2.5 3.1 3.8 4.8
0.0 4.4 11.7 9.7 17.3 26.9 14.7 11.5 5.3 6.3 3.0 2.2 0.8 3.5 1.1 0.5 6.5 13.1 8.8 11.9 14.2 3.7 16.2 21.2 15.6 6.3 2.5 2.3 1.8 1.5 0.9 0.9 0.8 1.4 1.5 1.5 1.7 2.4 3.0 3.9 6.0 6.2 7.3 10.5
8.7 20.0 23.7 14.0 12.8 8.9 8.1 4.9 3.5 3.5 4.1 3.5 1.3 2.8 5.8 5.4 15.0 19.5 22.2 14.2 4.8 16.5 19.3 15.7 12.1 7.0 7.0 4.1 3.4 3.1 5.5 5.9 5.7 6.3 6.4 7.7 7.8 9.3 10.2 9.4 10.1 8.4 10.2 13.2
11.0 6.4 13.5 9.6 8.4 6.4 6.2 4.4 3.8 3.6 5.3 4.5 5.2 5.0 6.1 13.5 19.9 14.1 10.7 11.7 13.0 12.9 13.1 18.5 9.3 6.9 6.1 5.8 5.7 6.1 7.0 7.5 8.1 8.6 8.1 11.3 10.3 8.4 12.6 11.4 10.2 8.1 8.5 8.6
3.5 6.4 12.6 6.8 6.1 8.0 8.4 6.9 7.1 3.9 7.2 5.4 5.9 11.8 15.9 19.0 12.0 12.7 11.4 8.8 18.5 16.9 9.7 8.8 8.5 8.1 8.7 9.1 9.1 9.6 9.8 9.0 8.4 8.2 7.9 8.5 8.6 8.1 8.5 8.8 8.2 8.0 6.5 6.7
3.9 12.5 12.5 11.9 9.3 12.4 12.7 10.1 8.2 5.1 5.1 11.4 5.9 15.9 17.2 9.5 14.4 18.8 13.6 22.1 24.2 13.6 12.0 10.4 10.2 10.1 11.0 10.5 10.1 10.7 9.3 7.8 7.3 7.1 6.6 6.4 5.9 4.6 3.2 4.6 7.0 5.1 5.3 5.1

GFSNW_prec_kuchsnow_252.txt.gz
Snowfall_Accumulation
0.0 0.0 0.0 0.0 0.0 0.0 0.0 0.0 17.6 0.0 0.0 10.7 24.5 19.7 3.8 0.0 0.0 0.0 1.1 2.5 5.4 9.0 8.6 10.0 13.5 7.8 1.8 0.0 0.6 2.7 1.8 14.6 10.4 4.0 0.6 0.6 3.4 16.7 28.0 59.2 56.6 42.6 42.2 48.1
0.0 0.0 0.0 0.0 0.0 0.0 0.0 6.6 4.3 0.0 0.0 30.8 15.1 2.7 1.6 0.9 1.6 0.8 2.2 4.2 4.9 6.5 11.4 15.5 5.9 4.5 0.0 0.0 0.8 5.8 3.4 14.2 14.5 5.8 0.9 0.2 3.8 4.7 9.5 22.3 31.6 50.2 51.2 50.9
0.0 0.0 0.0 0.0 0.0 0.0 0.0 5.2 29.5 3.8 2.7 1.5 3.0 4.8 4.3 4.4 0.0 0.7 0.1 3.4 4.0 5.8 4.4 1.9 6.8 4.4 0.2 0.0 0.0 0.0 0.0 10.7 13.3 15.3 10.5 6.1 12.9 6.6 4.4 11.7 45.3 31.7 29.6 27.8
0.0 0.0 0.0 0.0 0.0 0.0 0.0 12.5 21.1 0.1 20.5 12.2 5.0 4.1 5.8 6.1 5.7 0.5 0.2 3.5 3.4 7.1 12.9 4.7 2.6 1.3 0.4 0.0 0.2 0.0 0.5 16.4 6.2 4.0 4.0 2.4 4.4 6.9 5.0 10.2 11.3 23.5 25.2 16.4
0.0 0.0 0.0 0.0 0.0 0.0 0.0 47.0 8.6 1.8 2.0 0.1 2.9 10.5 14.6 7.1 1.4 5.0 2.1 3.7 1.7 2.9 10.0 4.6 8.2 3.1 0.4 2.7 0.0 0.2 0.1 8.0 7.2 7.0 3.3 1.2 7.0 7.8 4.3 4.1 8.4 11.1 6.5 15.1
0.0 0.0 0.0 0.0 0.0 0.0 0.0 1.4 0.0 3.5 3.0 1.8 5.9 4.7 2.7 3.7 2.7 0.3 0.7 1.7 4.4 4.9 2.1 0.3 0.2 0.5 0.8 2.0 4.1 3.2 3.3 6.3 6.7 10.5 0.9 2.3 11.7 14.0 8.2 5.3 3.8 4.5 8.7 14.7
0.0 0.0 0.0 0.0 0.0 0.0 0.0 0.0 0.6 13.9 16.5 5.2 2.5 0.3 1.0 1.8 1.5 5.6 1.1 0.3 2.0 0.0 0.0 0.0 0.0 0.2 0.1 0.1 0.8 1.0 5.8 5.6 8.1 9.8 5.6 28.5 11.0 1.6 2.0 2.4 2.3 2.6 2.7 2.9
0.0 0.0 0.0 0.0 0.0 0.0 0.0 0.0 0.1 10.1 17.1 1.5 2.0 2.0 2.8 0.2 0.5 2.0 1.3 0.6 0.0 0.0 0.6 3.5 5.8 3.0 1.8 0.7 0.1 0.3 1.0 4.8 15.5 16.8 7.2 4.2 2.4 1.8 2.7 2.7 3.4 1.6 1.1 0.6
0.0 0.0 0.0 0.0 0.0 0.0 0.0 0.0 0.0 5.9 21.2 5.9 0.4 4.7 3.2 5.4 2.9 3.8 1.8 0.0 0.0 0.0 3.1 10.7 14.1 6.7 2.1 1.4 0.5 0.0 0.3 2.0 17.5 19.2 18.2 10.8 2.8 0.5 0.1 0.6 6.8 0.8 0.2 0.3
0.0 0.0 0.0 0.0 0.0 0.0 0.0 0.0 0.0 2.4 24.8 0.2 0.4 2.3 4.2 2.0 2.2 3.5 0.8 0.4 0.1 0.5 8.4 14.2 12.0 7.6 3.3 7.2 4.3 2.8 7.0 11.4 27.7 23.2 30.4 8.7 1.5 0.6 0.2 9.4 9.8 0.8 0.1 0.1
0.0 0.0 0.0 0.0 0.0 0.0 0.0 0.0 0.0 0.0 10.5 0.4 0.0 0.0 0.2 0.3 0.5 5.1 1.9 6.5 4.4 8.7 19.1 16.6 11.5 10.2 7.4 5.1 1.7 5.5 9.8 15.3 14.0 16.9 29.3 25.4 1.2 1.0 4.0 4.6 0.5 0.5 0.2 0.1
0.0 0.0 0.0 0.0 0.0 0.0 0.0 2.1 0.0 0.0 1.5 0.0 0.0 0.0 0.0 0.0 0.0 0.4 2.0 5.5 6.3 9.1 19.6 13.5 5.8 7.1 7.8 4.9 13.5 0.9 9.3 4.9 9.9 9.6 17.7 6.1 3.9 3.7 1.0 0.4 1.2 1.0 0.3 0.1
0.0 0.0 0.0 0.0 0.0 0.0 0.0 0.7 0.0 0.0 6.7 0.1 0.0 0.0 0.0 0.0 0.0 0.0 2.5 0.9 1.1 3.7 3.0 7.0 6.6 8.9 3.0 7.4 4.1 2.7 2.1 0.3 5.4 8.3 5.8 2.5 4.2 1.9 0.4 0.4 1.9 1.2 0.3 0.7
0.0 0.0 0.0 0.0 0.0 0.0 0.0 0.0 0.0 0.0 1.3 10.4 0.9 0.0 0.0 0.0 0.0 0.0 0.0 0.0 0.0 0.0 0.0 4.7 5.3 3.4 0.0 1.4 1.2 0.3 1.4 1.6 3.6 7.1 4.3 2.2 1.7 2.0 1.3 1.1 0.7 0.5 0.2 0.2
0.0 0.0 0.0 0.0 0.0 0.0 0.0 0.0 0.0 0.0 0.8 13.9 3.6 0.0 0.0 0.0 0.0 0.0 0.0 0.0 0.0 0.0 2.5 4.7 2.8 0.3 0.8 0.2 1.0 2.2 0.7 2.6 7.7 10.2 6.5 6.1 5.6 4.0 3.0 3.3 2.3 1.0 0.8 1.0
0.0 0.0 0.0 0.0 0.0 0.0 0.0 28.5 0.0 0.0 0.0 8.1 9.4 0.0 0.0 0.0 0.0 0.0 0.0 0.0 0.0 0.1 0.9 1.9 0.3 0.0 0.3 3.0 5.0 3.5 3.2 1.7 1.6 3.6 3.7 7.1 7.3 4.4 2.3 2.3 1.0 0.1 0.0 0.0
0.0 0.0 0.0 0.0 0.0 0.0 1.6 6.1 0.1 0.0 0.0 10.7 11.5 3.2 0.0 0.0 0.0 0.0 0.0 0.0 0.1 0.6 1.5 1.3 0.3 0.0 0.3 3.9 2.5 1.2 0.8 0.4 0.2 0.2 0.2 1.2 0.7 0.7 0.0 0.0 0.0 0.0 0.0 0.0
0.0 0.0 0.0 0.0 0.0 0.0 0.4 0.0 0.0 0.0 0.8 2.5 14.5 7.8 1.5 0.0 2.2 3.1 0.5 1.3 0.6 0.5 0.6 0.5 0.7 0.2 0.8 10.9 1.0 0.0 0.0 0.0 0.0 0.0 0.0 0.0 0.0 0.0 0.0 0.0 0.0 0.0 0.0 0.0
0.0 0.0 0.0 0.0 0.0 9.3 0.0 0.0 0.0 0.0 3.6 15.2 6.3 4.2 15.3 0.0 2.4 2.0 2.5 0.4 8.9 0.4 3.0 0.5 0.4 4.1 14.9 9.0 1.8 0.8 0.2 0.1 0.1 0.0 0.0 0.0 0.1 0.1 0.0 0.6 0.6 0.1 0.6 2.1
0.0 0.0 4.6 39.0 4.1 0.0 0.0 1.0 19.3 12.4 4.0 2.7 3.3 0.5 7.9 1.9 3.8 6.7 5.6 3.2 4.6 8.0 1.4 0.0 4.5 8.4 3.1 1.1 1.2 1.8 1.1 1.4 0.6 0.5 0.4 0.8 0.8 1.0 1.5 1.9 2.4 2.8 3.1 3.5
0.0 23.0 16.8 0.6 0.0 0.0 5.6 31.1 25.2 8.6 12.7 1.5 1.7 0.4 1.5 2.0 11.3 6.2 2.8 8.6 4.5 8.9 3.5 3.7 9.3 12.3 6.1 3.2 4.4 1.7 0.6 0.5 0.7 1.0 1.2 1.3 1.1 1.3 1.6 2.7 1.6 2.2 2.4 2.9
0.0 0.0 0.0 0.0 8.5 13.7 14.8 16.1 7.7 5.5 3.1 0.5 0.3 0.2 0.2 0.7 1.8 8.2 4.5 8.8 9.8 12.7 3.6 12.2 16.6 7.8 4.0 3.3 3.4 1.0 0.4 0.1 0.1 0.3 0.5 0.9 1.1 1.3 1.4 2.0 2.5 3.1 3.8 4.8
0.0 4.4 11.7 9.7 17.3 26.9 14.7 11.5 5.3 6.3 3.0 2.2 0.8 3.5 1.1 0.5 6.5 13.1 8.8 11.9 14.2 3.7 16.2 21.2 15.6 6.3 2.5 2.3 1.8 1.5 0.9 0.9 0.8 1.4 1.5 1.5 1.7 2.4 3.0 3.9 6.0 6.2 7.3 10.5
8.7 20.0 23.7 14.0 12.8 8.9 8.1 4.9 3.5 3.5 4.1 3.5 1.3 2.8 5.8 5.4 15.0 19.5 22.2 14.2 4.8 16.5 19.3 15.7 12.1 7.0 7.0 4.1 3.4 3.1 5.5 5.9 5.7 6.3 6.4 7.7 7.8 9.3 10.2 9.4 10.1 8.4 10.2 13.2
11.0 6.4 13.5 9.6 8.4 6.4 6.2 4.4 3.8 3.6 5.3 4.5 5.2 5.0 6.1 13.5 19.9 14.1 10.7 11.7 13.0 12.9 13.1 18.5 9.3 6.9 6.1 5.8 5.7 6.1 7.0 7.5 8.1 8.6 8.1 11.3 10.3 8.4 12.6 11.4 10.2 8.1 8.5 8.6
3.5 6.4 12.6 6.8 6.1 8.0 8.4 6.9 7.1 3.9 7.2 5.4 5.9 11.8 15.9 19.0 12.0 12.7 11.4 8.8 18.5 16.9 9.7 8.8 8.5 8.1 8.7 9.1 9.1 9.6 9.8 9.0 8.4 8.2 7.9 8.5 8.6 8.1 8.5 8.8 8.2 8.0 6.5 6.7
3.9 12.5 12.5 11.9 9.3 12.4 12.7 10.1 8.2 5.1 5.1 11.4 5.9 15.9 17.2 9.5 14.4 18.8 13.6 22.1 24.2 13.6 12.0 10.4 10.2 10.1 11.0 10.5 10.1 10.7 9.3 7.8 7.3 7.1 6.6 6.4 5.9 4.6 3.2 4.6 7.0 5.1 5.3 5.1

GFSNW_prec_kuchsnow_258.txt.gz
Snowfall_Accumulation
0.0 0.0 0.0 0.0 0.0 0.0 0.0 0.0 17.6 0.0 0.0 10.7 24.5 19.7 3.8 0.0 0.0 0.0 1.1 2.5 5.4 9.0 8.6 10.0 13.5 7.8 1.8 0.0 0.6 2.7 1.8 14.6 10.4 4.0 0.6 0.6 3.4 16.7 28.0 59.2 56.6 42.6 42.2 48.1
0.0 0.0 0.0 0.0 0.0 0.0 0.0 6.6 4.3 0.0 0.0 30.8 15.1 2.7 1.6 0.9 1.6 0.8 2.2 4.2 4.9 6.5 11.4 15.5 5.9 4.5 0.0 0.0 0.8 5.8 3.4 14.2 14.5 5.8 0.9 0.2 3.8 4.7 9.5 22.3 31.6 50.2 51.2 50.9
0.0 0.0 0.0 0.0 0.0 0.0 0.0 5.2 29.5 3.8 2.7 1.5 3.0 4.8 4.3 4.4 0.0 0.7 0.1 3.4 4.0 5.8 4.4 1.9 6.8 4.4 0.2 0.0 0.0 0.0 0.0 10.7 13.3 15.3 10.5 6.1 12.9 6.6 4.4 11.7 45.3 31.7 29.6 27.8
0.0 0.0 0.0 0.0 0.0 0.0 0.0 12.5 21.1 0.1 20.5 12.2 5.0 4.1 5.8 6.1 5.7 0.5 0.2 3.5 3.4 7.1 12.9 4.7 2.6 1.3 0.4 0.0 0.2 0.0 0.5 16.4 6.2 4.0 4.0 2.4 4.4 6.9 5.0 10.2 11.3 23.5 25.2 16.4
0.0 0.0 0.0 0.0 0.0 0.0 0.0 47.0 8.6 1.8 2.0 0.1 2.9 10.5 14.6 7.1 1.4 5.0 2.1 3.7 1.7 2.9 10.0 4.6 8.2 3.1 0.4 2.7 0.0 0.2 0.1 8.0 7.2 7.0 3.3 1.2 7.0 7.8 4.3 4.1 8.4 11.1 6.5 15.1
0.0 0.0 0.0 0.0 0.0 0.0 0.0 1.4 0.0 3.5 3.0 1.8 5.9 4.7 2.7 3.7 2.7 0.3 0.7 1.7 4.4 4.9 2.1 0.3 0.2 0.5 0.8 2.0 4.1 3.2 3.3 6.3 6.7 10.5 0.9 2.3 11.7 14.0 8.2 5.3 3.8 4.5 8.7 14.7
0.0 0.0 0.0 0.0 0.0 0.0 0.0 0.0 0.6 13.9 16.5 5.2 2.5 0.3 1.0 1.8 1.5 5.6 1.1 0.3 2.0 0.0 0.0 0.0 0.0 0.2 0.1 0.1 0.8 1.0 5.8 5.6 8.1 9.8 5.6 28.5 11.0 1.6 2.0 2.4 2.3 2.6 2.7 2.9
0.0 0.0 0.0 0.0 0.0 0.0 0.0 0.0 0.1 10.1 17.1 1.5 2.0 2.0 2.8 0.2 0.5 2.0 1.3 0.6 0.0 0.0 0.6 3.5 5.8 3.0 1.8 0.7 0.1 0.3 1.0 4.8 15.5 16.8 7.2 4.2 2.4 1.8 2.7 2.7 3.4 1.6 1.1 0.6
0.0 0.0 0.0 0.0 0.0 0.0 0.0 0.0 0.0 5.9 21.2 5.9 0.4 4.7 3.2 5.4 2.9 3.8 1.8 0.0 0.0 0.0 3.1 10.7 14.1 6.7 2.1 1.4 0.5 0.0 0.3 2.0 17.5 19.2 18.2 10.8 2.8 0.5 0.1 0.6 6.8 0.8 0.2 0.3
0.0 0.0 0.0 0.0 0.0 0.0 0.0 0.0 0.0 2.4 24.8 0.2 0.4 2.3 4.2 2.0 2.2 3.5 0.8 0.4 0.1 0.5 8.4 14.2 12.0 7.6 3.3 7.2 4.3 2.8 7.0 11.4 27.7 23.2 30.4 8.7 1.5 0.6 0.2 9.4 9.8 0.8 0.1 0.1
0.0 0.0 0.0 0.0 0.0 0.0 0.0 0.0 0.0 0.0 10.5 0.4 0.0 0.0 0.2 0.3 0.5 5.1 1.9 6.5 4.4 8.7 19.1 16.6 11.5 10.2 7.4 5.1 1.7 5.5 9.8 15.3 14.0 16.9 29.3 25.4 1.2 1.0 4.0 4.6 0.5 0.5 0.2 0.1
0.0 0.0 0.0 0.0 0.0 0.0 0.0 2.1 0.0 0.0 1.5 0.0 0.0 0.0 0.0 0.0 0.0 0.4 2.0 5.5 6.3 9.1 19.6 13.5 5.8 7.1 7.8 4.9 13.5 0.9 9.3 4.9 9.9 9.6 17.7 6.1 3.9 3.7 1.0 0.4 1.2 1.0 0.3 0.1
0.0 0.0 0.0 0.0 0.0 0.0 0.0 0.7 0.0 0.0 6.7 0.1 0.0 0.0 0.0 0.0 0.0 0.0 2.5 0.9 1.1 3.7 3.0 7.0 6.6 8.9 3.0 7.4 4.1 2.7 2.1 0.3 5.4 8.3 5.8 2.5 4.2 1.9 0.4 0.4 1.9 1.2 0.3 0.7
0.0 0.0 0.0 0.0 0.0 0.0 0.0 0.0 0.0 0.0 1.3 10.4 0.9 0.0 0.0 0.0 0.0 0.0 0.0 0.0 0.0 0.0 0.0 4.7 5.3 3.4 0.0 1.4 1.2 0.3 1.4 1.6 3.6 7.1 4.3 2.2 1.7 2.0 1.3 1.1 0.7 0.5 0.2 0.2
0.0 0.0 0.0 0.0 0.0 0.0 0.0 0.0 0.0 0.0 0.8 13.9 3.6 0.0 0.0 0.0 0.0 0.0 0.0 0.0 0.0 0.0 2.5 4.7 2.8 0.3 0.8 0.2 1.0 2.2 0.7 2.6 7.7 10.2 6.5 6.1 5.6 4.0 3.0 3.3 2.3 1.0 0.8 1.0
0.0 0.0 0.0 0.0 0.0 0.0 0.0 28.5 0.0 0.0 0.0 8.1 9.4 0.0 0.0 0.0 0.0 0.0 0.0 0.0 0.0 0.1 0.9 1.9 0.3 0.0 0.3 3.0 5.0 3.5 3.2 1.7 1.6 3.6 3.7 7.1 7.3 4.4 2.3 2.3 1.0 0.1 0.0 0.0
0.0 0.0 0.0 0.0 0.0 0.0 1.6 6.1 0.1 0.0 0.0 10.7 11.5 3.2 0.0 0.0 0.0 0.0 0.0 0.0 0.1 0.6 1.5 1.3 0.3 0.0 0.3 3.9 2.5 1.2 0.8 0.4 0.2 0.2 0.2 1.2 0.7 0.7 0.0 0.0 0.0 0.0 0.0 0.0
0.0 0.0 0.0 0.0 0.0 0.0 0.4 0.0 0.0 0.0 0.8 2.5 14.5 7.8 1.5 0.0 2.2 3.1 0.5 1.3 0.6 0.5 0.6 0.5 0.7 0.2 0.8 10.9 1.0 0.0 0.0 0.0 0.0 0.0 0.0 0.0 0.0 0.0 0.0 0.0 0.0 0.0 0.0 0.0
0.0 0.0 0.0 0.0 0.0 9.3 0.0 0.0 0.0 0.0 3.6 15.2 6.3 4.2 15.3 0.0 2.4 2.0 2.5 0.4 8.9 0.4 3.0 0.5 0.4 4.1 14.9 9.0 1.8 0.8 0.2 0.1 0.1 0.0 0.0 0.0 0.1 0.1 0.0 0.6 0.6 0.1 0.6 2.1
0.0 0.0 4.6 39.0 4.1 0.0 0.0 1.0 19.3 12.4 4.0 2.7 3.3 0.5 7.9 1.9 3.8 6.7 5.6 3.2 4.6 8.0 1.4 0.0 4.5 8.4 3.1 1.1 1.2 1.8 1.1 1.4 0.6 0.5 0.4 0.8 0.8 1.0 1.5 1.9 2.4 2.8 3.1 3.5
0.0 23.0 16.9 0.6 0.0 0.0 5.6 31.1 25.3 8.6 12.7 1.5 1.7 0.4 1.5 2.0 11.3 6.2 2.8 8.6 4.5 8.9 3.5 3.7 9.3 12.3 6.1 3.2 4.4 1.7 0.6 0.5 0.7 1.0 1.2 1.3 1.1 1.3 1.6 2.7 1.6 2.2 2.4 2.9
0.0 0.0 0.0 0.0 8.5 13.7 14.8 16.1 7.7 5.5 3.1 0.5 0.3 0.2 0.2 0.7 1.8 8.2 4.5 8.8 9.8 12.7 3.6 12.2 16.6 7.8 4.0 3.3 3.4 1.0 0.4 0.1 0.1 0.3 0.5 0.9 1.1 1.3 1.4 2.0 2.5 3.1 3.8 4.8
0.0 4.4 11.7 9.7 17.3 27.0 14.7 11.5 5.3 6.3 3.0 2.2 0.8 3.5 1.1 0.5 6.5 13.1 8.8 11.9 14.2 3.7 16.2 21.2 15.6 6.3 2.5 2.3 1.8 1.5 0.9 0.9 0.8 1.4 1.5 1.5 1.7 2.4 3.0 3.9 6.0 6.2 7.3 10.5
8.7 20.0 23.7 14.0 12.8 8.9 8.1 4.9 3.5 3.5 4.1 3.5 1.3 2.8 5.8 5.4 15.0 19.5 22.2 14.2 4.8 16.5 19.3 15.7 12.1 7.0 7.0 4.1 3.4 3.1 5.5 5.9 5.7 6.3 6.4 7.7 7.8 9.3 10.2 9.4 10.1 8.4 10.2 13.2
11.0 6.4 13.5 9.6 8.4 6.4 6.2 4.4 3.8 3.6 5.3 4.5 5.2 5.0 6.1 13.5 19.9 14.1 10.7 11.7 13.0 12.9 13.1 18.5 9.3 6.9 6.1 5.8 5.7 6.1 7.0 7.5 8.1 8.6 8.1 11.3 10.3 8.4 12.6 11.4 10.2 8.1 8.5 8.6
3.5 6.4 12.6 6.8 6.1 8.0 8.4 6.9 7.1 3.9 7.2 5.4 5.9 11.8 15.9 19.0 12.0 12.7 11.4 8.8 18.5 16.9 9.7 8.8 8.5 8.1 8.7 9.1 9.1 9.6 9.8 9.0 8.4 8.2 7.9 8.5 8.6 8.1 8.5 8.8 8.2 8.0 6.5 6.7
3.9 12.5 12.5 11.9 9.3 12.4 12.7 10.1 8.2 5.1 5.1 11.4 5.9 15.9 17.2 9.5 14.4 18.8 13.6 22.1 24.2 13.6 12.0 10.4 10.2 10.1 11.0 10.5 10.1 10.7 9.3 7.8 7.3 7.1 6.6 6.4 5.9 4.6 3.2 4.6 7.0 5.1 5.3 5.1

GFSNW_prec_kuchsnow_261.txt.gz
Snowfall_Accumulation
0.0 0.0 0.0 0.0 0.0 0.0 0.0 0.0 17.6 0.0 0.0 10.7 24.5 19.7 3.8 0.0 0.0 0.0 1.1 2.5 5.4 9.0 8.6 10.0 13.5 7.8 1.8 0.0 0.6 2.7 1.8 14.6 10.4 4.0 0.6 0.6 3.4 16.7 28.0 59.2 56.6 42.6 42.2 48.1
0.0 0.0 0.0 0.0 0.0 0.0 0.0 6.6 4.3 0.0 0.0 30.8 15.1 2.7 1.6 0.9 1.6 0.8 2.2 4.2 4.9 6.5 11.4 15.5 5.9 4.5 0.0 0.0 0.8 5.8 3.4 14.2 14.5 5.8 0.9 0.2 3.8 4.7 9.5 22.3 31.6 50.2 51.2 50.9
0.0 0.0 0.0 0.0 0.0 0.0 0.0 5.2 29.5 3.8 2.7 1.5 3.0 4.8 4.3 4.4 0.0 0.7 0.1 3.4 4.0 5.8 4.4 1.9 6.8 4.4 0.2 0.0 0.0 0.0 0.0 10.7 13.3 15.3 10.5 6.1 12.9 6.6 4.4 11.7 45.3 31.7 29.6 27.8
0.0 0.0 0.0 0.0 0.0 0.0 0.0 12.5 21.1 0.1 20.5 12.2 5.0 4.1 5.8 6.1 5.7 0.5 0.2 3.5 3.4 7.1 12.9 4.7 2.6 1.3 0.4 0.0 0.2 0.0 0.5 16.4 6.2 4.0 4.0 2.4 4.4 6.9 5.0 10.2 11.3 23.5 25.2 16.4
0.0 0.0 0.0 0.0 0.0 0.0 0.0 47.0 8.6 1.8 2.0 0.1 2.9 10.5 14.6 7.1 1.4 5.0 2.1 3.7 1.7 2.9 10.0 4.6 8.2 3.1 0.4 2.7 0.0 0.2 0.1 8.0 7.2 7.0 3.3 1.2 7.0 7.8 4.3 4.1 8.4 11.1 6.5 15.1
0.0 0.0 0.0 0.0 0.0 0.0 0.0 1.4 0.0 3.5 3.0 1.8 5.9 4.7 2.7 3.7 2.7 0.3 0.7 1.7 4.4 4.9 2.1 0.3 0.2 0.5 0.8 2.0 4.1 3.2 3.3 6.3 6.7 10.5 0.9 2.3 11.7 14.0 8.2 5.3 3.8 4.5 8.7 14.7
0.0 0.0 0.0 0.0 0.0 0.0 0.0 0.0 0.6 13.9 16.5 5.2 2.5 0.3 1.0 1.8 1.5 5.6 1.1 0.3 2.0 0.0 0.0 0.0 0.0 0.2 0.1 0.1 0.8 1.0 5.8 5.6 8.1 9.8 5.6 28.5 11.0 1.6 2.0 2.4 2.3 2.6 2.7 2.9
0.0 0.0 0.0 0.0 0.0 0.0 0.0 0.0 0.1 10.1 17.1 1.5 2.0 2.0 2.8 0.2 0.5 2.0 1.3 0.6 0.0 0.0 0.6 3.5 5.8 3.0 1.8 0.7 0.1 0.3 1.0 4.8 15.5 16.8 7.2 4.2 2.4 1.8 2.7 2.7 3.4 1.6 1.1 0.6
0.0 0.0 0.0 0.0 0.0 0.0 0.0 0.0 0.0 5.9 21.2 5.9 0.4 4.7 3.2 5.4 2.9 3.8 1.8 0.0 0.0 0.0 3.1 10.7 14.1 6.7 2.1 1.4 0.5 0.0 0.3 2.0 17.5 19.2 18.2 10.8 2.8 0.5 0.1 0.6 6.8 0.8 0.2 0.3
0.0 0.0 0.0 0.0 0.0 0.0 0.0 0.0 0.0 2.4 24.8 0.2 0.4 2.3 4.2 2.0 2.2 3.5 0.8 0.4 0.1 0.5 8.4 14.2 12.0 7.6 3.3 7.2 4.3 2.8 7.0 11.4 27.7 23.2 30.4 8.7 1.5 0.6 0.2 9.4 9.8 0.8 0.1 0.1
0.0 0.0 0.0 0.0 0.0 0.0 0.0 0.0 0.0 0.0 10.5 0.4 0.0 0.0 0.2 0.3 0.5 5.1 1.9 6.5 4.4 8.7 19.1 16.6 11.5 10.2 7.4 5.1 1.7 5.5 9.8 15.3 14.0 16.9 29.3 25.4 1.2 1.0 4.0 4.6 0.5 0.5 0.2 0.1
0.0 0.0 0.0 0.0 0.0 0.0 0.0 2.1 0.0 0.0 1.5 0.0 0.0 0.0 0.0 0.0 0.0 0.4 2.0 5.5 6.3 9.1 19.6 13.5 5.8 7.1 7.8 4.9 13.5 0.9 9.3 4.9 9.9 9.6 17.7 6.1 3.9 3.7 1.0 0.4 1.2 1.0 0.3 0.1
0.0 0.0 0.0 0.0 0.0 0.0 0.0 0.7 0.0 0.0 6.7 0.1 0.0 0.0 0.0 0.0 0.0 0.0 2.5 0.9 1.1 3.7 3.0 7.0 6.6 8.9 3.0 7.4 4.1 2.7 2.1 0.3 5.4 8.3 5.8 2.5 4.2 1.9 0.4 0.4 1.9 1.2 0.3 0.7
0.0 0.0 0.0 0.0 0.0 0.0 0.0 0.0 0.0 0.0 1.3 10.4 0.9 0.0 0.0 0.0 0.0 0.0 0.0 0.0 0.0 0.0 0.0 4.7 5.3 3.4 0.0 1.4 1.2 0.3 1.4 1.6 3.6 7.1 4.3 2.2 1.7 2.0 1.3 1.1 0.7 0.5 0.2 0.2
0.0 0.0 0.0 0.0 0.0 0.0 0.0 0.0 0.0 0.0 0.8 13.9 3.6 0.0 0.0 0.0 0.0 0.0 0.0 0.0 0.0 0.0 2.5 4.7 2.8 0.3 0.8 0.2 1.0 2.2 0.7 2.6 7.7 10.2 6.5 6.1 5.6 4.0 3.0 3.3 2.3 1.0 0.8 1.0
0.0 0.0 0.0 0.0 0.0 0.0 0.0 28.5 0.0 0.0 0.0 8.1 9.4 0.0 0.0 0.0 0.0 0.0 0.0 0.0 0.0 0.1 0.9 1.9 0.3 0.0 0.3 3.0 5.0 3.5 3.2 1.7 1.6 3.6 3.7 7.1 7.3 4.4 2.3 2.3 1.0 0.1 0.0 0.0
0.0 0.0 0.0 0.0 0.0 0.0 1.6 6.1 0.1 0.0 0.0 10.7 11.5 3.2 0.0 0.0 0.0 0.0 0.0 0.0 0.1 0.6 1.5 1.3 0.3 0.0 0.3 3.9 2.5 1.2 0.8 0.4 0.2 0.2 0.2 1.2 0.7 0.7 0.0 0.0 0.0 0.0 0.0 0.0
0.0 0.0 0.0 0.0 0.0 0.0 0.4 0.0 0.0 0.0 0.8 2.5 14.5 7.8 1.5 0.0 2.2 3.1 0.5 1.3 0.6 0.5 0.6 0.5 0.7 0.2 0.8 10.9 1.0 0.0 0.0 0.0 0.0 0.0 0.0 0.0 0.0 0.0 0.0 0.0 0.0 0.0 0.0 0.0
0.0 0.0 0.0 0.0 0.0 9.3 0.0 0.0 0.0 0.0 3.6 15.2 6.3 4.2 15.3 0.0 2.4 2.0 2.5 0.4 8.9 0.4 3.0 0.5 0.4 4.1 14.9 9.0 1.8 0.8 0.2 0.1 0.1 0.0 0.0 0.0 0.1 0.1 0.0 0.6 0.6 0.1 0.6 2.1
0.0 0.0 4.6 39.0 4.1 0.0 0.0 1.0 19.3 12.4 4.0 2.7 3.3 0.5 7.9 1.9 3.8 6.7 5.6 3.2 4.6 8.0 1.4 0.0 4.5 8.4 3.1 1.1 1.2 1.8 1.1 1.4 0.6 0.5 0.4 0.8 0.8 1.0 1.5 1.9 2.4 2.8 3.1 3.5
0.0 23.0 17.3 0.6 0.0 0.0 5.6 31.1 25.3 8.6 12.7 1.5 1.7 0.4 1.5 2.0 11.3 6.2 2.8 8.6 4.5 8.9 3.5 3.7 9.3 12.3 6.1 3.2 4.4 1.7 0.6 0.5 0.7 1.0 1.2 1.3 1.1 1.3 1.6 2.7 1.6 2.2 2.4 2.9
0.0 0.0 0.0 0.0 8.5 13.8 14.8 16.1 7.7 5.5 3.1 0.5 0.3 0.2 0.2 0.7 1.8 8.2 4.5 8.8 9.8 12.7 3.6 12.2 16.6 7.8 4.0 3.3 3.4 1.0 0.4 0.1 0.1 0.3 0.5 0.9 1.1 1.3 1.4 2.0 2.5 3.1 3.8 4.8
0.0 4.4 11.7 9.7 17.3 27.0 14.7 11.5 5.3 6.3 3.0 2.2 0.8 3.5 1.1 0.5 6.5 13.1 8.8 11.9 14.2 3.7 16.2 21.2 15.6 6.3 2.5 2.3 1.8 1.5 0.9 0.9 0.8 1.4 1.5 1.5 1.7 2.4 3.0 3.9 6.0 6.2 7.3 10.5
8.7 20.1 23.7 14.0 12.8 8.9 8.1 4.9 3.5 3.5 4.1 3.5 1.3 2.8 5.8 5.4 15.0 19.5 22.2 14.2 4.8 16.5 19.3 15.7 12.1 7.0 7.0 4.1 3.4 3.1 5.5 5.9 5.7 6.3 6.4 7.7 7.8 9.3 10.2 9.4 10.1 8.4 10.2 13.2
11.1 6.4 13.5 9.6 8.4 6.4 6.2 4.4 3.8 3.6 5.3 4.5 5.2 5.0 6.1 13.5 19.9 14.1 10.7 11.7 13.0 12.9 13.1 18.5 9.3 6.9 6.1 5.8 5.7 6.1 7.0 7.5 8.1 8.6 8.1 11.3 10.3 8.4 12.6 11.4 10.2 8.1 8.5 8.6
3.5 6.4 12.6 6.8 6.1 8.0 8.4 6.9 7.1 3.9 7.2 5.4 5.9 11.8 15.9 19.0 12.0 12.7 11.4 8.8 18.5 16.9 9.7 8.8 8.5 8.1 8.7 9.1 9.1 9.6 9.8 9.0 8.4 8.2 7.9 8.5 8.6 8.1 8.5 8.8 8.2 8.0 6.5 6.7
3.9 12.5 12.5 11.9 9.3 12.4 12.7 10.1 8.2 5.1 5.1 11.4 5.9 15.9 17.2 9.5 14.4 18.8 13.6 22.1 24.2 13.6 12.0 10.4 10.2 10.1 11.0 10.5 10.1 10.7 9.3 7.8 7.3 7.1 6.6 6.4 5.9 4.6 3.2 4.6 7.0 5.1 5.3 5.1